Regional Weather Roundup
Issued by NWS

Home | Current Version | Previous Version | Text Only | Print | Product List | Glossary Off
Versions: 1 2 3 4 5 6 7 8 9 10 11 12 13 14 15 16 17 18 19 20 21 22 23 24 25 26 27 28 29 30 31 32 33 34 35 36 37 38 39 40 41 42 43 44 45 46 47 48 49 50

771
ASUS43 KLOT 231703
RWRIL

ILLINOIS REGIONAL WEATHER ROUNDUP
NATIONAL WEATHER SERVICE CHICAGO/ROMEOVILLE IL
1200 PM CDT SAT JUL 23 2016

NOTE: "FAIR" INDICATES FEW OR NO CLOUDS BELOW 12,000 FEET WITH NO
SIGNIFICANT WEATHER AND/OR OBSTRUCTIONS TO VISIBILITY.

* THESE STATIONS ARE NOT UNDER NWS QUALITY CONTROL. THEY ALSO MAY NOT
  REPORT WEATHER SUCH AS PRECIPITATION OR FOG.

ILZ001-002-007-009-015-016-024-231800-
NORTHWEST ILLINOIS

CITY           SKY/WX    TMP DP  RH WIND       PRES   REMARKS
MOLINE         CLOUDY    88  78  72 SE8       29.96S HX 101
STERLING*      CLOUDY    85  80  85 VRB3      29.98F HX  99
SAVANNA*       CLOUDY    83  79  86 SE6       29.97S HX  95
$$

ILZ003-004-008-010-011-017-018-231800-
NORTH CENTRAL ILLINOIS

CITY           SKY/WX    TMP DP  RH WIND       PRES   REMARKS
ROCKFORD       CLOUDY    87  77  72 S8        29.99F HX  99
FREEPORT*      CLOUDY    82  78  87 SE6       30.00F HX  90
ROCHELLE*      CLOUDY    85  78  80 S8        29.99F HX  97
DE KALB*       PTSUNNY   86  77  75 S9        30.01S HX  97
$$

ILZ005-006-012>014-019>023-231800-
NORTHEAST ILLINOIS

CITY           SKY/WX    TMP DP  RH WIND       PRES   REMARKS
CHICAGO-OHARE  CLOUDY    88  72  58 W7        29.98F HX  94
CHICAGO-MIDWAY CLOUDY    90  73  57 S3        29.98F HX  98
AURORA         CLOUDY    87  77  72 S8        30.00S HX  99
LANSING*       PTSUNNY   89  75  63 SW8       29.99F HX  98
WAUKEGAN       CLOUDY    84  77  79 E7        29.98S HX  94
DUPAGE AIRPORT CLOUDY    88  73  61 SW9       29.99F HX  95
WHEELING       CLOUDY    89  72  56 SE3       29.99S HX  96
MORRIS*        PTSUNNY   87  77  73 S5        29.99S HX  98
NORTHERLY ISL    N/A     83  75  77 SE3         N/A  HX  90
$$

LMZ740>746-231800-
SOUTHERN LAKE MICHIGAN

STATION/POSITION SKY/WX   TEMP    WIND        PRES    VSBY  WAVE
                          AIR SEA DIR/SP/G                  HT/PER
                          (F)     (DEG/KT/KT) (MB)    (MI)  (FT/S)
SOUTHERN BUOY              78 78   90/  2/  2 1015.1          0
WILMETTE HARBOR            82 75  140/  2/  2   N/A           0
HARRISON CRIB              83     110/  6/  7   N/A
BURNHAM HARBOR             82      20/  2/  5   N/A
CALUMET HARBOR             82      50/  5/  6 1015.2R
BURNS HARBOR               80      10/  3/  4 1016.3R
MICHIGAN CITY              81     290/  4/  5   N/A
MICHIGAN CITY 6N           79 75  280/  2/  4   N/A           0
ST. JOSEPH                 76 76  260/  6/  6 1015.8R         0
$$

ILZ025>027-034>036-040-047-049-050-058-095>099-231800-
WEST-CENTRAL ILLINOIS

CITY           SKY/WX    TMP DP  RH WIND       PRES   REMARKS
QUINCY         CLOUDY    90  76  63 S5        29.98R HX 101
GALESBURG*     MOSUNNY   86  78  75 S8        29.99S HX  99
MACOMB*        MOSUNNY   88  78  73 S6        30.00F HX 101
JACKSONVILLE*  SUNNY     87  77  71 SE6       29.99S HX  98
PITTSFIELD*    SUNNY     88  80  76 SE5       30.00S HX 103
$$

ILZ028>032-037-038-041>044-048-051>054-059>061-231800-
CENTRAL ILLINOIS

CITY           SKY/WX    TMP DP  RH WIND       PRES   REMARKS
PONTIAC        MOSUNNY   88  77  69 SW5       30.01S HX  99
BLOOMINGTON    MOSUNNY   86  75  69 S7        30.02F HX  95
DECATUR        SUNNY     88  74  63 S9        30.01S HX  96
PEORIA         MOSUNNY   87  77  72 CALM      29.99S HX  99
LACON*         MOSUNNY   87  76  69 SW3       29.98F HX  97
LINCOLN*       SUNNY     88  78  72 S5        29.99F HX 100
SPRINGFIELD    SUNNY     89  75  63 SE6       30.00S HX  99
TAYLORVILLE    SUNNY     86  76  73 NW3       30.01S HX  96
$$

ILZ033-039-045-046-055>057-062-063-231800-
EAST-CENTRAL ILLINOIS

CITY           SKY/WX    TMP DP  RH WIND       PRES   REMARKS
CHAMPAIGN      MOSUNNY   85  76  74 SW6       30.02S HX  94
MATTOON        MOSUNNY   86  74  67 SE6       30.02S HX  94
PARIS*         PTSUNNY   86  77  75 CALM      30.03R HX  98
$$

ILZ079-100>102-231800-
SOUTHWEST ILLINOIS

CITY           SKY/WX    TMP DP  RH WIND       PRES   REMARKS
ALTON          MOSUNNY   86  75  70 S6        30.00F HX  95
BELLEVILLE     SUNNY     89  77  67 CALM      29.98F HX 102
CAHOKIA*       SUNNY     90  73  57 VRB5      29.98F HX  98
SPARTA*        PTSUNNY   87  75  66 SE3       30.00F HX  96
$$

ILZ064>066-069>071-074>076-080>082-084>086-088>090-092>094-231800-
SOUTH-CENTRAL ILLINOIS

CITY           SKY/WX    TMP DP  RH WIND       PRES   REMARKS
CARBONDALE     MOSUNNY   85  75  72 CALM      30.00S HX  93
CAIRO*         SUNNY     86  77  73 E3        29.98F HX  97
EFFINGHAM*     SUNNY     87  77  72 E3        30.03S HX  99
MARION         PTSUNNY   88  75  66 S6        30.00F HX  97
MT. VERNON     MOSUNNY   90  73  58 SE6       30.01S HX  98
CENTRALIA*     MOSUNNY   88  77  69 E3        30.00S HX 100
SALEM*         PTSUNNY   88  75  66 CALM      30.01S HX  98
METROPOLIS*    SUNNY     87  75  67 E5        29.99F HX  96
$$

ILZ067-068-072-073-078-083-087-091-231800-
SOUTHEAST ILLINOIS

CITY           SKY/WX    TMP DP  RH WIND       PRES   REMARKS
LAWRENCEVILLE  PTSUNNY   85  76  74 CALM      30.01F HX  94
FLORA*         PTSUNNY   87  78  73 SE5       30.01F HX  99
FAIRFIELD*     PTSUNNY   86  77  74 E3        29.99F HX  96
HARRISBURG*    SUNNY     86  77  75 E3        30.00S HX  97
CARMI*         MOSUNNY   85  77  78 CALM      30.00F HX  95
$$

ABBREVIATIONS USED IN REMARKS
   TC - TEMPERATURE IN CELSIUS
  WCI - WIND CHILL INDEX
   HX - HEAT INDEX
  VSB - VISIBILITY
$$





USA.gov is the U.S. government's official web portal to all federal, state and local government web resources and services.